| time (UTC) | temp C | wind direction | speed KPH | gust KPH | rain 1hr cm | rain 24hr cm | rain mn cm | humidity % | barometer mb |
| 20260904134545 | 25 | 32 | 3.2 | 9.7 | 0.00 | 0.10 | 0.00 | 76 | 1013.1 |
| 20260904133037 | 25 | 79 | 1.6 | 12.9 | 0.00 | 0.10 | 0.00 | 76 | 1012.9 |
| 20260904131534 | 24 | 61 | 1.6 | 6.4 | 0.00 | 0.10 | 0.00 | 76 | 1012.9 |
| 20260904130029 | 23 | 81 | 0.0 | 4.8 | 0.00 | 0.10 | 0.00 | 69 | 1013.1 |
| 20260904124526 | 22 | 217 | 0.0 | 3.2 | 0.00 | 0.10 | 0.00 | 56 | 1013.5 |
| 20260904123032 | 21 | 20 | 0.0 | 1.6 | 0.00 | 0.10 | 0.00 | 32 | 1013.4 |
| 20260904121525 | 21 | 236 | 0.0 | 1.6 | 0.00 | 0.10 | 0.00 | 27 | 1013.5 |
| 20260904120031 | 20 | 252 | 0.0 | 0.0 | 0.00 | 0.10 | 0.00 | 28 | 1013.5 |
| 20260904114522 | 20 | 252 | 0.0 | 0.0 | 0.00 | 0.13 | 0.00 | 29 | 1013.5 |
| 20260904113021 | 20 | 252 | 0.0 | 0.0 | 0.00 | 0.13 | 0.00 | 29 | 1013.5 |
| 20260904111518 | 19 | 252 | 0.0 | 1.6 | 0.00 | 0.13 | 0.00 | 30 | 1013.1 |
| 20260904110017 | 19 | 252 | 0.0 | 0.0 | 0.00 | 0.13 | 0.00 | 31 | 1012.9 |
| 20260904104515 | 19 | 252 | 0.0 | 0.0 | 0.00 | 0.25 | 0.00 | 31 | 1012.6 |
| 20260904103021 | 20 | 252 | 0.0 | 1.6 | 0.00 | 0.25 | 0.00 | 31 | 1012.4 |
| 20260904101510 | 20 | 252 | 0.0 | 0.0 | 0.00 | 0.25 | 0.00 | 31 | 1012.4 |
| 20260904100020 | 20 | 252 | 0.0 | 0.0 | 0.00 | 0.25 | 0.00 | 30 | 1012.4 |
| 20260904094507 | 20 | 252 | 0.0 | 1.6 | 0.00 | 1.04 | 0.00 | 30 | 1012.4 |
| 20260904093007 | 20 | 252 | 0.0 | 0.0 | 0.00 | 1.04 | 0.00 | 31 | 1012.3 |
| 20260904091506 | 20 | 252 | 0.0 | 0.0 | 0.00 | 1.04 | 0.00 | 31 | 1012.0 |
| 20260904090005 | 20 | 252 | 0.0 | 0.0 | 0.00 | 1.04 | 0.00 | 32 | 1012.3 |
| 20260904084506 | 20 | 252 | 0.0 | 0.0 | 0.00 | 1.04 | 0.00 | 31 | 1012.5 |
| 20260904083011 | 20 | 252 | 0.0 | 0.0 | 0.00 | 1.04 | 0.00 | 31 | 1012.4 |
| 20260904081505 | 20 | 252 | 0.0 | 0.0 | 0.00 | 1.04 | 0.00 | 32 | 1012.5 |
| 20260904080003 | 20 | 252 | 0.0 | 0.0 | 0.00 | 1.04 | 0.00 | 32 | 1012.1 |
| 20260904074502 | 20 | 252 | 0.0 | 0.0 | 0.00 | 1.04 | 0.00 | 32 | 1012.2 |
| 20260904073001 | 20 | 252 | 0.0 | 0.0 | 0.00 | 1.04 | 0.00 | 32 | 1012.3 |
| 20260904071608 | 20 | 252 | 0.0 | 0.0 | 0.00 | 1.04 | 0.00 | 33 | 1012.2 |
| 20260904070059 | 20 | 252 | 0.0 | 0.0 | 0.00 | 1.04 | 0.00 | 34 | 1011.8 |
| 20260904064558 | 20 | 252 | 0.0 | 0.0 | 0.00 | 1.04 | 0.00 | 35 | 1011.3 |
| 20260904063057 | 20 | 253 | 0.0 | 0.0 | 0.00 | 1.04 | 0.00 | 37 | 1011.1 |
| 20260904061555 | 20 | 253 | 0.0 | 0.0 | 0.00 | 1.04 | 0.00 | 40 | 1011.1 |
| 20260904060053 | 20 | 253 | 0.0 | 0.0 | 0.00 | 1.04 | 0.00 | 41 | 1010.9 |
| 20260904054552 | 21 | 253 | 0.0 | 0.0 | 0.00 | 1.04 | 0.00 | 45 | 1010.7 |
| 20260904053048 | 21 | 253 | 0.0 | 1.6 | 0.00 | 1.04 | 0.00 | 47 | 1011.0 |
| 20260904051545 | 21 | 249 | 0.0 | 1.6 | 0.00 | 1.04 | 0.00 | 50 | 1011.1 |
| 20260904050047 | 22 | 251 | 0.0 | 1.6 | 0.00 | 1.04 | 0.00 | 46 | 1011.4 |
| 20260904044542 | 22 | 224 | 0.0 | 1.6 | 0.00 | 1.04 | 0.00 | 45 | 1011.7 |
| 20260904043039 | 22 | 224 | 0.0 | 3.2 | 0.00 | 1.04 | 0.00 | 48 | 1011.5 |
| 20260904041536 | 23 | 197 | 0.0 | 1.6 | 0.00 | 1.04 | 0.00 | 43 | 1011.9 |
| 20260904040037 | 23 | 212 | 0.0 | 9.7 | 0.00 | 1.04 | 0.00 | 35 | 1012.4 |
| 20260904034534 | 23 | 330 | 0.0 | 1.6 | 0.00 | 1.04 | 1.04 | 30 | 1012.6 |
| 20260904033030 | 24 | 330 | 0.0 | 3.2 | 0.00 | 1.04 | 1.04 | 30 | 1013.0 |
| 20260904031529 | 24 | 81 | 0.0 | 0.0 | 0.00 | 1.04 | 1.04 | 34 | 1013.0 |
| 20260904030029 | 24 | 81 | 0.0 | 0.0 | 0.00 | 1.04 | 1.04 | 36 | 1013.1 |
| 20260904024529 | 24 | 80 | 0.0 | 0.0 | 0.00 | 1.04 | 1.04 | 37 | 1013.4 |
| 20260904023027 | 24 | 80 | 0.0 | 0.0 | 0.00 | 1.04 | 1.04 | 40 | 1012.7 |
| 20260904021538 | 24 | 81 | 0.0 | 0.0 | 0.00 | 1.04 | 1.04 | 40 | 1012.3 |
| 20260904020027 | 24 | 80 | 0.0 | 0.0 | 0.00 | 1.04 | 1.04 | 42 | 1012.5 |
| 20260904014534 | 24 | 81 | 0.0 | 0.0 | 0.00 | 1.04 | 1.04 | 47 | 1012.4 |
| 20260904013024 | 25 | 80 | 0.0 | 0.0 | 0.00 | 1.04 | 1.04 | 50 | 1011.9 |
| 20260904011538 | 25 | 80 | 0.0 | 0.0 | 0.00 | 1.04 | 1.04 | 51 | 1011.9 |
| 20260904010024 | 25 | 81 | 0.0 | 0.0 | 0.00 | 1.04 | 1.04 | 53 | 1012.1 |
| 20260904004524 | 25 | 81 | 0.0 | 0.0 | 0.00 | 1.04 | 1.04 | 54 | 1012.3 |
| 20260904003022 | 25 | 80 | 0.0 | 0.0 | 0.00 | 1.04 | 1.04 | 58 | 1012.4 |
| 20260904001521 | 25 | 81 | 0.0 | 0.0 | 0.00 | 1.04 | 1.04 | 60 | 1012.6 |
| 20260904000021 | 25 | 81 | 0.0 | 0.0 | 0.00 | 1.04 | 1.04 | 65 | 1012.7 |
| 20260903234523 | 26 | 81 | 0.0 | 0.0 | 0.00 | 1.04 | 1.04 | 69 | 1012.5 |
| 20260903233020 | 26 | 80 | 0.0 | 0.0 | 0.00 | 1.04 | 1.04 | 72 | 1011.9 |
| 20260903231522 | 27 | 81 | 0.0 | 0.0 | 0.00 | 1.04 | 1.04 | 74 | 1012.2 |
| 20260903230019 | 27 | 81 | 0.0 | 0.0 | 0.00 | 1.04 | 1.04 | 75 | 1011.9 |
| 20260903224527 | 27 | 81 | 0.0 | 0.0 | 0.00 | 1.04 | 1.04 | 76 | 1012.0 |
| 20260903223018 | 28 | 81 | 0.0 | 1.6 | 0.00 | 1.04 | 1.04 | 76 | 1011.8 |
| 20260903221518 | 28 | 235 | 0.0 | 0.0 | 0.00 | 1.04 | 1.04 | 75 | 1011.8 |
| 20260903220033 | 28 | 235 | 0.0 | 3.2 | 0.00 | 1.04 | 1.04 | 73 | 1011.6 |
| 20260903214519 | 29 | 172 | 0.0 | 1.6 | 0.00 | 1.04 | 1.04 | 74 | 1011.7 |
| 20260903213023 | 29 | 84 | 0.0 | 3.2 | 0.00 | 1.04 | 1.04 | 73 | 1011.7 |
| 20260903211515 | 29 | 240 | 0.0 | 4.8 | 0.00 | 1.04 | 1.04 | 71 | 1011.4 |
| 20260903210022 | 30 | 269 | 1.6 | 9.7 | 0.00 | 1.04 | 1.04 | 70 | 1011.7 |
| 20260903204516 | 30 | 283 | 0.0 | 6.4 | 0.00 | 1.04 | 1.04 | 69 | 1011.7 |
| 20260903203012 | 31 | 145 | 0.0 | 3.2 | 0.00 | 1.04 | 1.04 | 67 | 1011.7 |
| 20260903201520 | 30 | 251 | 1.6 | 4.8 | 0.00 | 1.04 | 1.04 | 67 | 1011.8 |
| 20260903200007 | 30 | 194 | 0.0 | 12.9 | 0.00 | 1.04 | 1.04 | 69 | 1012.1 |
| 20260903194506 | 30 | 50 | 0.0 | 4.8 | 0.00 | 1.04 | 1.04 | 69 | 1012.2 |
| 20260903193004 | 30 | 236 | 1.6 | 6.4 | 0.00 | 1.04 | 1.04 | 70 | 1012.4 |
| 20260903191502 | 30 | 223 | 1.6 | 6.4 | 0.00 | 1.04 | 1.04 | 71 | 1012.6 |
| 20260903190101 | 30 | 249 | 1.6 | 8.0 | 0.00 | 1.04 | 1.04 | 69 | 1012.7 |
| 20260903184601 | 30 | 270 | 1.6 | 8.0 | 0.00 | 1.04 | 1.04 | 69 | 1013.1 |
| 20260903183057 | 30 | 181 | 0.0 | 4.8 | 0.00 | 1.04 | 1.04 | 70 | 1013.1 |
| 20260903181556 | 30 | 62 | 3.2 | 9.7 | 0.00 | 1.04 | 1.04 | 68 | 1013.3 |
| 20260903180054 | 30 | 302 | 3.2 | 11.3 | 0.00 | 1.04 | 1.04 | 70 | 1013.5 |
| 20260903174551 | 29 | 273 | 0.0 | 6.4 | 0.00 | 1.27 | 1.04 | 74 | 1013.6 |
| 20260903173049 | 28 | 277 | 1.6 | 9.7 | 0.00 | 1.27 | 1.04 | 74 | 1013.8 |
| 20260903171546 | 28 | 81 | 0.0 | 6.4 | 0.00 | 1.27 | 1.04 | 76 | 1014.0 |
| 20260903170045 | 27 | 1 | 0.0 | 4.8 | 0.00 | 1.27 | 1.04 | 75 | 1014.2 |
| 20260903164539 | 27 | 32 | 1.6 | 8.0 | 0.00 | 1.70 | 1.04 | 73 | 1014.4 |
| 20260903163033 | 26 | 203 | 1.6 | 9.7 | 0.00 | 1.70 | 1.04 | 65 | 1014.7 |
| 20260903161532 | 25 | 280 | 0.0 | 4.8 | 0.00 | 1.70 | 1.04 | 48 | 1015.0 |
| 20260903160029 | 23 | 321 | 0.0 | 1.6 | 0.03 | 1.70 | 1.04 | 32 | 1014.9 |
| 20260903154528 | 23 | 222 | 0.0 | 1.6 | 0.08 | 1.83 | 1.04 | 28 | 1015.1 |
| 20260903153027 | 22 | 166 | 0.0 | 6.4 | 0.10 | 1.83 | 1.04 | 33 | 1014.9 |
| 20260903151530 | 22 | 276 | 0.0 | 4.8 | 0.10 | 1.83 | 1.04 | 34 | 1015.7 |
| 20260903150039 | 23 | 224 | 0.0 | 4.8 | 0.08 | 1.80 | 1.02 | 38 | 1016.2 |
| 20260903144528 | 23 | 278 | 1.6 | 4.8 | 0.03 | 1.75 | 0.97 | 43 | 1016.7 |
| 20260903143036 | 23 | 63 | 1.6 | 8.0 | 0.00 | 1.73 | 0.94 | 46 | 1016.8 |
| 20260903141532 | 24 | 112 | 1.6 | 11.3 | 0.00 | 1.73 | 0.94 | 49 | 1016.5 |
| 20260903140021 | 25 | 120 | 0.0 | 6.4 | 0.00 | 1.73 | 0.94 | 32 | 1015.6 |